Regional Weather Roundup
Issued by NWS

Home | Current Version | Previous Version | Text Only | Print | Product List | Glossary On
Versions: 1 2 3 4 5 6 7 8 9 10 11 12 13 14 15 16 17 18 19 20 21 22 23 24 25 26 27 28 29 30 31 32 33 34 35 36 37 38 39 40 41 42 43 44 45 46 47 48 49 50
000
ASUS43 KTOP 241008
RWRKS

WEATHER ROUNDUP FOR KANSAS
NATIONAL WEATHER SERVICE GOODLAND KS
500 AM CDT THU APR 24 2014

NOTE:  "FAIR" INDICATES FEW OR NO CLOUDS BELOW 12,000 FEET WITH NO
SIGNIFICANT WEATHER AND/OR OBSTRUCTIONS TO VISIBILITY.

KSZ001>006-013>018-027>032-041>047-241100-
NORTHWEST KANSAS

CITY           SKY/WX    TMP DP  RH WIND       PRES   REMARKS
GOODLAND       CLOUDY    51  25  36 NW21G26   29.84S
HAYS           CLOUDY    54  46  76 NW16      29.72F
HILL CITY      CLOUDY    53  43  68 NW8       29.76S
RUSSELL        CLOUDY    54  48  80 N18G30    29.68F
$$

KSZ061>065-074>080-084>089-241100-
SOUTHWEST KANSAS

CITY           SKY/WX    TMP DP  RH WIND       PRES   REMARKS
DODGE CITY     CLOUDY    51  44  77 NW13      29.78R
ELKHART          N/A     47  29  50 NW22        N/A
GARDEN CITY    LGT RAIN  50  37  61 N29G36    29.81R
GREAT BEND     CLOUDY    54  48  82 N14G24    29.69F
LIBERAL        CLOUDY    54  30  40 N30G36    29.82R
PRATT          CLOUDY    52  50  93 N22G28    29.69S
$$

KSZ066>073-081>083-090>101-241100-
SOUTHEAST KANSAS

CITY           SKY/WX    TMP DP  RH WIND       PRES   REMARKS
CHANUTE        CLOUDY    68  54  60 S14       29.63F
COFFEYVILLE    CLOUDY    68  55  63 S8        29.63S
HUTCHINSON     LGT RAIN  58  53  84 N18G29    29.65R
MEDICINE LODGE   N/A     57  53  86 N22G33    29.65R
NEWTON         CLOUDY    66  54  63 W20G28    29.68R
PARSONS        CLOUDY    68  54  60 SE6       29.64F
WICHITA INTL   CLOUDY    65  58  78 SW8       29.62R
WICHITA JABRA  CLOUDY    67  58  72 S21       29.61R
WICHITA MCCONL CLOUDY    66  63  91 S14       29.62R
WINFIELD       PTCLDY    66  58  75 S17G24    29.60R
$$

KSZ007>012-019>026-033>040-048>060-102>105-241100-
NORTHEAST KANSAS

CITY           SKY/WX    TMP DP  RH WIND       PRES   REMARKS
CONCORDIA      RAIN      54  53  97 NW16      29.66F
EMPORIA        MOCLDY    67  56  67 S30       29.55F
LAWRENCE       LGT RAIN  68  56  65 SW3       29.63F
MANHATTAN      LGT RAIN  58  54  86 NE8       29.60F
OLATHE IND     CLOUDY    63  50  62 N7        29.66R
OLATHE EXE     CLOUDY    64  48  56 CALM      29.65R
SALINA         CLOUDY    58  55  90 N13       29.66F FOG
TOPEKA BILLARD LGT RAIN  71  56  58 SW12G28   29.61F
TOPEKA FORBES  CLOUDY    69  55  60 S9        29.61F
$$



USA.gov is the U.S. government's official web portal to all federal, state and local government web resources and services.